[TLELIST] Archives

 

[list_settings.list_name] Current TLEs

February 17th 2014 PDT

HST 1 20580U 90037B 14047.52097051 .00003270 00000-0 21479-3 0 4396 2 20580 028.4703 109.9950 0003491 079.0665 052.8330 15.04687089106527 ISS (ZARYA) 1 25544U 98067A 14048.30071314 .00016235 00000-0 28752-3 0 6975 2 25544 051.6514 333.8978 0004217 148.2315 002.9156 15.50422922872724 CXO 1 25867U 99040B 14048.88536510 .00000425 00000-0 00000+0 0 9937 2 25867 076.5906 326.1616 8278421 275.4455 000.6297 00.37802547 11464 ____________________________________________________________________ These 2-Line ...Continue Reading

[list_settings.list_name] Current TLEs

February 16th 2014 PDT

HST 1 20580U 90037B 14046.23644895 .00001614 00000-0 10000-3 0 4384 2 20580 028.4712 118.4389 0002999 076.6877 283.4094 15.04680036106320 ISS (ZARYA) 1 25544U 98067A 14047.27136873 .00015384 00000-0 27326-3 0 6905 2 25544 051.6519 338.9976 0004210 143.3071 018.7940 15.50385398872564 CXO 1 25867U 99040B 14048.88536510 .00000425 00000-0 00000+0 0 9937 2 25867 076.5906 326.1616 8278421 275.4455 000.6297 00.37802547 11464 ____________________________________________________________________ These 2-Line ...Continue Reading

[list_settings.list_name] Current TLEs

February 15th 2014 PDT

HST 1 20580U 90037B 14046.23644895 .00001614 00000-0 10000-3 0 4384 2 20580 028.4712 118.4389 0002999 076.6877 283.4094 15.04680036106320 ISS (ZARYA) 1 25544U 98067A 14046.23902522 .00015674 00000-0 27855-3 0 6822 2 25544 051.6514 344.1142 0004143 138.4199 018.0317 15.50354152872402 CXO 1 25867U 99040B 14048.88645525 .00000425 00000-0 00000+0 0 9923 2 25867 076.5908 326.1627 8278166 275.4462 000.7793 00.37803762 11464 ____________________________________________________________________ These 2-Line ...Continue Reading

[list_settings.list_name] Current TLEs

February 14th 2014 PDT

HST 1 20580U 90037B 14043.67167269 .00004427 00000-0 29522-3 0 4366 2 20580 028.4706 135.2719 0003488 041.3350 078.4030 15.04663330105943 ISS (ZARYA) 1 25544U 98067A 14045.07250883 .00015856 00000-0 28206-3 0 6765 2 25544 051.6511 349.8947 0004139 133.8313 347.7523 15.50317109872228 CXO 1 25867U 99040B 14046.24248438 .00000431 00000-0 00000+0 0 9919 2 25867 076.5818 326.3020 8278581 275.4764 000.8586 00.37797896 11459 ____________________________________________________________________ These 2-Line ...Continue Reading

[list_settings.list_name] Current TLEs

February 13th 2014 PDT

HST 1 20580U 90037B 14043.67167269 .00004427 00000-0 29522-3 0 4366 2 20580 028.4706 135.2719 0003488 041.3350 078.4030 15.04663330105943 ISS (ZARYA) 1 25544U 98067A 14044.29412757 .00016167 00000-0 28766-3 0 6721 2 25544 051.6508 353.7518 0004235 131.2687 323.2290 15.50292926872101 CXO 1 25867U 99040B 14046.24248438 .00000431 00000-0 00000+0 0 9919 2 25867 076.5818 326.3020 8278581 275.4764 000.8586 00.37797896 11459 ____________________________________________________________________ These 2-Line ...Continue Reading

[list_settings.list_name] Current TLEs

February 12th 2014 PDT

HST 1 20580U 90037B 14042.54154031 .00003386 00000-0 22301-3 0 4354 2 20580 028.4703 142.6905 0003361 030.4973 075.4759 15.04657903105774 ISS (ZARYA) 1 25544U 98067A 14043.40180105 .00016203 00000-0 28859-3 0 6670 2 25544 051.6503 358.1745 0004087 127.2033 023.9319 15.50263757871961 CXO 1 25867U 99040B 14043.59646551 .00000379 00000-0 00000+0 0 9902 2 25867 076.5725 326.4113 8280720 275.5288 000.6057 00.37795550 11445 ____________________________________________________________________ These 2-Line ...Continue Reading

[list_settings.list_name] Current TLEs

February 11th 2014 PDT

HST 1 20580U 90037B 14040.54971422 .00004092 00000-0 27210-3 0 4341 2 20580 028.4698 155.7671 0003281 010.8812 084.5903 15.04642636105462 ISS (ZARYA) 1 25544U 98067A 14042.23897258 .00016199 00000-0 28889-3 0 6604 2 25544 051.6495 003.9360 0004287 126.4645 010.7783 15.50224520871785 CXO 1 25867U 99040B 14043.59646551 .00000379 00000-0 00000+0 0 9902 2 25867 076.5725 326.4113 8280720 275.5288 000.6057 00.37795550 11445 ____________________________________________________________________ These 2-Line ...Continue Reading

[list_settings.list_name] Current TLEs

February 10th 2014 PDT

HST 1 20580U 90037B 14040.54971422 .00004092 00000-0 27210-3 0 4341 2 20580 028.4698 155.7671 0003281 010.8812 084.5903 15.04642636105462 ISS (ZARYA) 1 25544U 98067A 14041.27271132 .00013780 00000-0 24735-3 0 6535 2 25544 051.6496 008.7230 0004164 119.3104 021.8964 15.50186335871639 CXO 1 25867U 99040B 14043.59646551 .00000379 00000-0 00000+0 0 9902 2 25867 076.5725 326.4113 8280720 275.5288 000.6057 00.37795550 11445 ____________________________________________________________________ These 2-Line ...Continue Reading

[list_settings.list_name] Current TLEs

February 9th 2014 PDT

HST 1 20580U 90037B 14038.76266098 .00003959 00000-0 26302-3 0 4339 2 20580 028.4697 167.4985 0003218 351.4041 125.0575 15.04627859105205 ISS (ZARYA) 1 25544U 98067A 14040.42524453 .00013496 00000-0 24264-3 0 6461 2 25544 051.6502 012.9224 0004178 117.1950 331.4888 15.50160954871507 CXO 1 25867U 99040B 14040.95109507 .00000254 00000-0 00000+0 0 9883 2 25867 076.5560 326.5324 8284799 275.5748 000.4435 00.37798366 11433 ____________________________________________________________________ These 2-Line ...Continue Reading

[list_settings.list_name] Current TLEs

February 8th 2014 PDT

HST 1 20580U 90037B 14038.76266098 .00003959 00000-0 26302-3 0 4339 2 20580 028.4697 167.4985 0003218 351.4041 125.0575 15.04627859105205 ISS (ZARYA) 1 25544U 98067A 14039.46840772 .00013449 00000-0 24205-3 0 6405 2 25544 051.6504 017.6634 0004073 112.0779 033.4226 15.50134478871353 CXO 1 25867U 99040B 14040.95109507 .00000254 00000-0 00000+0 0 9883 2 25867 076.5560 326.5324 8284799 275.5748 000.4435 00.37798366 11433 ____________________________________________________________________ These 2-Line ...Continue Reading
  • This mailing list is a public mailing list - anyone may join or leave, at any time.
  • This mailing list is announce-only.

International Space Station (ISS) / Hubble Space Telescope (HST) / Chandra X-Ray Observatory Orbital Data via EMAIL

Privacy Policy:

Private list